Printer-friendly version

IAU Minor Planet Center

Minor Planet Center

MPEC 2004-Q55 : 2004 QA22

The following Minor Planet Electronic Circular may be linked-to from your own Web pages, but must not otherwise be redistributed electronically.


Read MPEC 2004-Q54 Read MPEC 2004-Q56


M.P.E.C. 2004-Q55                                Issued 2004 Aug. 28, 01:06 UT

     The Minor Planet Electronic Circulars contain information on unusual
         minor planets and routine data on comets.  They are published
   on behalf of Commission 20 of the International Astronomical Union by the
          Minor Planet Center, Smithsonian Astrophysical Observatory,
                          Cambridge, MA 02138, U.S.A.

                  Supported in part by the Brinson Foundation
             Prepared using the Tamkin Foundation Computer Network

                              MPC@CFA.HARVARD.EDU
          URL http://cfa-www.harvard.edu/iau/mpc.html  ISSN 1523-6714

                                   2004 QA22

Observations:
     K04Q22A* C2004 08 25.33185 00 28 27.99 +42 30 55.0          18.9   EQ055704
     K04Q22A  C2004 08 25.34181 00 27 42.02 +42 24 05.0          19.0   EQ055704
     K04Q22A  C2004 08 25.35183 00 26 55.86 +42 17 09.4          19.0   EQ055704
     K04Q22A  C2004 08 25.36187 00 26 09.72 +42 10 09.1          19.3   EQ055704
     K04Q22A  C2004 08 26.29211 23 38 14.44 +31 22 01.5          19.2   EQ055704
     K04Q22A  C2004 08 26.30245 23 37 44.35 +31 15 26.6          19.0   EQ055704
     K04Q22A  C2004 08 26.31281 23 37 14.35 +31 08 51.0          19.3   EQ055704
     K04Q22A  C2004 08 26.32328 23 36 44.01 +31 02 08.8          19.5   EQ055704
     K04Q22A  C2004 08 26.33391 23 36 13.24 +30 55 18.8          19.4   EQ055704
     K04Q22A  C2004 08 27.86079 22 53 16.46 +17 02 23.6          19.4 R EQ055J95
     K04Q22A  C2004 08 27.86813 22 53 06.55 +16 59 19.4          18.8 R EQ055J95
     K04Q22A  C2004 08 27.87497 22 52 57.17 +16 56 26.6          18.6 R EQ055J95
     K04Q22A  C2004 08 27.87945 22 52 51.00 +16 54 34.5          18.5 R EQ055J95
     K04Q22A  C2004 08 27.88390 22 52 44.65 +16 52 46.3          18.7 R EQ055J95
     K04Q22A  C2004 08 27.95310 22 51 01.92 +16 25 18.6          19.2 R EQ055143
     K04Q22A  C2004 08 27.96245 22 50 48.25 +16 21 24.3          19.2 R EQ055143
     K04Q22A  C2004 08 27.97775 22 50 26.08 +16 14 59.7          18.7 R EQ055143
     K04Q22A  C2004 08 27.98091 22 50 28.67 +16 12 26.5          19.1 R EQ055J95
     K04Q22A  C2004 08 27.98881 22 50 17.51 +16 09 09.3          18.5 R EQ055J95

Observer details:
143 Gnosca.  Observers S. Sposetti, C. Pontinelli.  Measurer S. Sposetti.
    0.40-m f/4 reflector + CCD.
704 Lincoln Laboratory ETS, New Mexico.  Observers M. Blythe, F. Shelly,
    M. Bezpalko, R. Huber, L. Manguso, D. Torres, R. Kracke, M. McCleary,
    H. Stange, A. Milner.  Measurers J. Stuart, R. Sayer, J. Evans, J. Kommers.
    1.0-m f/2.15 reflector + CCD.
J95 Great Shefford.  Observer P. Birtwhistle.  0.30-m f/6.3 Schmidt-Cassegrain
    + CCD.

Orbital elements:
2004 QA22
Epoch 2004 July 14.0 TT = JDT 2453200.5                 MPC
M  67.87407              (2000.0)            P               Q
n   1.04736650     Peri.   10.84976     -0.87677044     +0.48090610
a   0.9602926      Node   197.89514     -0.44164140     -0.80658245
e   0.1172115      Incl.    0.31905     -0.19033253     -0.34373549
P   0.94           H   27.6           G   0.15           U   7
Residuals in seconds of arc
040825 704  0.6-  0.1-    040826 704  0.7+  0.1+    040827 143 (1.2-  2.5-)
040825 704  0.1-  0.1-    040826 704  0.3-  0.1+    040827 143 (2.0-  2.1-)
040825 704  0.0   0.3+    040827 J95  1.0-  0.6+    040827 143 (1.1-  2.7-)
040825 704  0.2-  0.3+    040827 J95  0.3+  0.2+    040827 J95  0.0   1.2+
040826 704  0.0   0.3+    040827 J95  0.2+  1.4-    040827 J95  0.1+  0.7+
040826 704  0.2-  0.6-    040827 J95  0.0   1.4-
040826 704  0.8+  0.2+    040827 J95 (3.2-  1.7+)

Ephemeris:
2004 QA22                a,e,i = 0.96, 0.12, 0                   q = 0.8477
Date    TT    R. A. (2000) Decl.     Delta      r     Elong.  Phase     V
2004 08 23    04 30.78   +57 45.4    0.0070   1.010    77.5   102.2    20.6
2004 08 24    02 31.26   +55 29.9    0.0064   1.011    94.6    85.1    19.6
2004 08 25    00 52.01   +46 19.8    0.0064   1.013   113.1    66.5    19.0
2004 08 26    23 50.50   +34 39.0    0.0070   1.015   130.1    49.6    18.7
2004 08 27    23 13.54   +24 16.8    0.0080   1.017   143.6    36.2    18.6
2004 08 28    22 49.95   +16 13.9    0.0093   1.018   153.5    26.3    18.7
2004 08 29    22 33.88   +10 12.2    0.011    1.020   160.4    19.3    18.8
2004 08 30    22 22.32   +05 40.2    0.013    1.022   165.0    14.8    19.0
2004 08 31    22 13.64   +02 11.9    0.014    1.023   167.6    12.3    19.2
2004 09 01    22 06.92   -00 31.2    0.016    1.025   168.4    11.4    19.4
2004 09 02    22 01.57   -02 41.5    0.018    1.026   167.9    11.9    19.6

2004 09 04    21 53.66   -05 55.2    0.022    1.029   165.3    14.4    20.2
2004 09 06    21 48.17   -08 11.1    0.026    1.032   162.1    17.4    20.6
2004 09 08    21 44.25   -09 50.8    0.029    1.035   159.1    20.3    21.0
2004 09 10    21 41.44   -11 06.3    0.033    1.038   156.2    23.0    21.4
2004 09 12    21 39.44   -12 04.7    0.038    1.040   153.6    25.5    21.7
2004 09 14    21 38.10   -12 50.5    0.042    1.043   151.1    27.8    22.0
2004 09 16    21 37.29   -13 26.6    0.046    1.045   148.8    29.9    22.3
2004 09 18    21 36.94   -13 55.1    0.050    1.047   146.6    31.9    22.6
2004 09 20    21 36.98   -14 17.5    0.055    1.049   144.5    33.7    22.8
2004 09 22    21 37.35   -14 34.7    0.059    1.051   142.6    35.5    23.0

Gareth V. Williams           (C) Copyright 2004 MPC           M.P.E.C. 2004-Q55

Read MPEC 2004-Q54 Read MPEC 2004-Q56


Our Web policy. Index to the CBAT/MPC/ICQ pages.


Valid HTML 4.01!